 day,  time,  air_temp(C),  RH(%),  ground_temp10cm(C),  ground_temp20cm(C),  ground_temp40cm(C),  precipitation(mm/h),  Solar_Radiation(MJ/m2h),  lack, 
 08/07/01, 01:00,  12.6,  99,  17.0,  17.2,  16.8,   0.0,  0.00, 
 08/07/01, 02:00,  11.8,  99,  16.8,  17.2,  16.7,   0.0,  0.00, 
 08/07/01, 03:00,  10.9,  99,  16.7,  17.1,  16.7,   0.0,  0.00, 
 08/07/01, 04:00,   9.5,  99,  16.5,  17.1,  16.7,   0.0,  0.00, 
 08/07/01, 05:00,   9.0,  99,  16.2,  17.0,  16.7,   0.0,  0.00, 
 08/07/01, 06:00,  10.2,  99,  16.0,  16.9,  16.7,   0.0,  0.17, 
 08/07/01, 07:00,  11.6,  99,  15.8,  16.9,  16.7,   0.0,  0.48, 
 08/07/01, 08:00,  11.8,  99,  15.8,  16.8,  16.7,   0.0,  0.72, 
 08/07/01, 09:00,  13.4,  99,  16.0,  16.7,  16.6,   0.0,  1.33, 
 08/07/01, 10:00,  16.4,  82,  16.4,  16.7,  16.6,   0.0,  2.76, 
 08/07/01, 11:00,  17.1,  83,  17.2,  16.6,  16.6,   0.0,  2.81, 
 08/07/01, 12:00,  18.4,  78,  18.2,  16.6,  16.6,   0.0,  2.83, 
 08/07/01, 13:00,  20.1,  68,  19.4,  16.8,  16.6,   0.0,  2.79, 
 08/07/01, 14:00,  21.1,  58,  19.8,  16.9,  16.6,   0.0,  3.01, 
 08/07/01, 15:00,  21.1,  56,  19.7,  17.1,  16.6,   0.0,  2.84, 
 08/07/01, 16:00,  20.5,  60,  19.8,  17.3,  16.7,   0.0,  2.50, 
 08/07/01, 17:00,  19.2,  58,  20.1,  17.6,  16.6,   0.0,  1.97, 
 08/07/01, 18:00,  18.3,  62,  20.3,  17.7,  16.7,   0.0,  1.20, 
 08/07/01, 19:00,  15.5,  69,  20.0,  17.8,  16.6,   0.0,  0.40, 
 08/07/01, 20:00,  12.6,  86,  19.5,  17.9,  16.6,   0.0,  0.00, 
 08/07/01, 21:00,  13.9,  77,  19.0,  18.0,  16.6,   0.0,  0.00, 
 08/07/01, 22:00,  14.0,  94,  18.6,  18.1,  16.6,   0.0,  0.00, 
 08/07/01, 23:00,  12.5,  99,  18.2,  18.0,  16.6,   0.0,  0.00, 
 08/07/02, 00:00,  14.1,  99,  17.8,  17.9,  16.6,   0.0,  0.00, 
 08/07/02, 01:00,  12.6,  99,  17.6,  17.9,  16.6,   0.0,  0.00, 
 08/07/02, 02:00,  11.8,  99,  17.3,  17.8,  16.6,   0.0,  0.00, 
 08/07/02, 03:00,  12.9,  99,  17.1,  17.7,  16.6,   0.0,  0.00, 
 08/07/02, 04:00,  12.3,  99,  16.9,  17.6,  16.7,   0.0,  0.00, 
 08/07/02, 05:00,  11.5,  99,  16.7,  17.5,  16.7,   0.0,  0.00, 
 08/07/02, 06:00,  12.1,  99,  16.5,  17.4,  16.7,   0.0,  0.19, 
 08/07/02, 07:00,  15.1,  92,  16.4,  17.3,  16.7,   0.0,  0.99, 
 08/07/02, 08:00,  16.5,  86,  16.5,  17.2,  16.7,   0.0,  2.03, 
 08/07/02, 09:00,  16.7,  86,  16.9,  17.1,  16.7,   0.0,  2.10, 
 08/07/02, 10:00,  16.2,  86,  17.5,  17.1,  16.7,   0.0,  1.82, 
 08/07/02, 11:00,  19.0,  76,  18.0,  17.1,  16.7,   0.0,  3.19, 
 08/07/02, 12:00,  19.9,  74,  19.1,  17.1,  16.8,   0.0,  3.54, 
 08/07/02, 13:00,  21.2,  73,  20.1,  17.2,  16.8,   0.0,  2.91, 
 08/07/02, 14:00,  21.6,  69,  20.7,  17.4,  16.7,   0.0,  2.39, 
 08/07/02, 15:00,  20.6,  71,  20.9,  17.8,  16.7,   0.0,  2.09, 
 08/07/02, 16:00,  20.7,  80,  20.9,  18.0,  16.7,   0.0,  1.94, 
 08/07/02, 17:00,  19.3,  81,  20.9,  18.2,  16.8,   0.0,  1.16, 
 08/07/02, 18:00,  18.2,  84,  20.9,  18.3,  16.8,   0.0,  0.50, 
 08/07/02, 19:00,  17.0,  90,  20.8,  18.5,  16.8,   0.0,  0.10, 
 08/07/02, 20:00,  16.2,  91,  20.5,  18.5,  16.7,   0.0,  0.00, 
 08/07/02, 21:00,  14.9,  99,  20.1,  18.6,  16.7,   0.0,  0.00, 
 08/07/02, 22:00,  14.2,  99,  19.7,  18.6,  16.8,   0.0,  0.00, 
 08/07/02, 23:00,  14.5,  99,  19.3,  18.6,  16.7,   0.0,  0.00, 
 08/07/03, 00:00,  14.4,  99,  19.0,  18.6,  16.8,   0.0,  0.00, 
 08/07/03, 01:00,  14.2,  99,  18.8,  18.5,  16.9,   0.0,  0.00, 
 08/07/03, 02:00,  14.1,  99,  18.6,  18.5,  16.9,   0.0,  0.00, 
 08/07/03, 03:00,  14.4,  98,  18.4,  18.5,  16.9,   0.0,  0.00, 
 08/07/03, 04:00,  14.7,  95,  18.2,  18.3,  16.8,   0.0,  0.00, 
 08/07/03, 05:00,  14.9,  96,  18.0,  18.2,  16.9,   0.0,  0.00, 
 08/07/03, 06:00,  14.7,  96,  17.9,  18.3,  17.0,   0.0,  0.00, 
 08/07/03, 07:00,  14.6,  99,  17.8,  18.1,  17.0,   0.0,  0.07, 
 08/07/03, 08:00,  14.9,  99,  17.7,  18.1,  17.0,   2.5,  0.19, 
 08/07/03, 09:00,  15.4,  99,  17.7,  17.9,  16.9,   0.0,  0.53, 
 08/07/03, 10:00,  16.9,  99,  17.7,  17.9,  16.9,   0.5,  0.58, 
 08/07/03, 11:00,  17.6,  99,  17.9,  17.8,  17.0,   0.0,  1.01, 
 08/07/03, 12:00,  17.6,  99,  18.1,  17.8,  16.9,   0.5,  0.61, 
 08/07/03, 13:00,  18.2,  99,  18.3,  17.8,  17.0,   0.0,  0.62, 
 08/07/03, 14:00,  19.4,  97,  18.4,  17.8,  17.0,   0.0,  0.97, 
 08/07/03, 15:00,  19.0,  98,  18.7,  17.8,  17.0,   0.0,  0.96, 
 08/07/03, 16:00,  19.8,  93,  18.9,  17.8,  16.9,   0.0,  1.14, 
 08/07/03, 17:00,  19.0,  98,  19.1,  17.9,  16.9,   0.0,  0.54, 
 08/07/03, 18:00,  18.7,  98,  19.2,  17.9,  16.9,   0.0,  0.28, 
 08/07/03, 19:00,  18.4,  99,  19.2,  18.0,  17.0,   0.0,  0.05, 
 08/07/03, 20:00,  18.0,  99,  19.1,  18.0,  16.9,   0.5,  0.00, 
 08/07/03, 21:00,  17.5,  99,  18.9,  18.1,  17.0,   9.0,  0.00, 
 08/07/03, 22:00,  17.5,  99,  18.7,  18.3,  17.0,  16.5,  0.00, 
 08/07/03, 23:00,  16.8,  99,  18.2,  18.5,  17.1,  26.5,  0.00, 
 08/07/04, 00:00,  17.0,  99,  18.1,  18.5,  17.1,   0.0,  0.00, 
 08/07/04, 01:00,  17.1,  99,  18.1,  18.4,  17.2,   2.0,  0.00, 
 08/07/04, 02:00,  17.2,  99,  18.0,  18.4,  17.3,   0.5,  0.00, 
 08/07/04, 03:00,  17.3,  99,  18.0,  18.3,  17.3,   0.0,  0.00, 
 08/07/04, 04:00,  17.1,  99,  18.0,  18.2,  17.2,   0.0,  0.00, 
 08/07/04, 05:00,  17.0,  99,  17.9,  18.1,  17.2,   0.0,  0.00, 
 08/07/04, 06:00,  17.1,  99,  17.9,  18.1,  17.3,   0.0,  0.11, 
 08/07/04, 07:00,  17.8,  99,  17.8,  18.0,  17.2,   0.0,  0.45, 
 08/07/04, 08:00,  18.6,  99,  17.9,  18.1,  17.3,   0.0,  1.13, 
 08/07/04, 09:00,  20.1,  91,  18.3,  17.9,  17.2,   0.0,  2.09, 
 08/07/04, 10:00,  21.1,  85,  18.8,  18.0,  17.3,   0.0,  2.12, 
 08/07/04, 11:00,  21.4,  87,  19.6,  17.9,  17.2,   0.0,  2.12, 
 08/07/04, 12:00,  21.2,  78,  20.4,  18.0,  17.2,   0.0,  2.45, 
 08/07/04, 13:00,  23.3,  74,  21.0,  18.2,  17.2,   0.0,  2.22, 
 08/07/04, 14:00,  23.0,  78,  21.6,  18.4,  17.3,   0.0,  2.02, 
 08/07/04, 15:00,  22.9,  78,  21.7,  18.5,  17.3,   0.0,  1.45, 
 08/07/04, 16:00,  23.9,  76,  21.8,  18.7,  17.3,   0.0,  1.90, 
 08/07/04, 17:00,  21.1,  83,  22.0,  18.9,  17.2,   0.0,  0.89, 
 08/07/04, 18:00,  20.8,  88,  22.0,  19.2,  17.2,   0.0,  0.45, 
 08/07/04, 19:00,  19.0,  95,  21.8,  19.3,  17.2,   0.0,  0.26, 
 08/07/04, 20:00,  17.9,  99,  21.5,  19.4,  17.2,   0.0,  0.01, 
 08/07/04, 21:00,  17.7,  97,  21.1,  19.5,  17.2,   0.0,  0.00, 
 08/07/04, 22:00,  17.6,  96,  20.7,  19.5,  17.2,   0.0,  0.00, 
 08/07/04, 23:00,  17.1,  97,  20.4,  19.5,  17.4,   0.0,  0.00, 
 08/07/05, 00:00,  17.0,  95,  20.1,  19.5,  17.3,   0.0,  0.00, 
 08/07/05, 01:00,  15.8,  98,  19.7,  19.4,  17.3,   0.0,  0.00, 
 08/07/05, 02:00,  15.9,  98,  19.6,  19.4,  17.3,   0.0,  0.00, 
 08/07/05, 03:00,  16.1,  99,  19.2,  19.2,  17.3,   0.0,  0.00, 
 08/07/05, 04:00,  16.6,  96,  19.0,  19.1,  17.4,   0.0,  0.00, 
 08/07/05, 05:00,  16.9,  92,  18.8,  19.0,  17.4,   0.0,  0.00, 
 08/07/05, 06:00,  17.0,  93,  18.6,  18.9,  17.4,   0.0,  0.17, 
 08/07/05, 07:00,  19.0,  90,  18.5,  18.8,  17.4,   0.0,  0.79, 
 08/07/05, 08:00,  20.8,  82,  18.5,  18.7,  17.4,   0.0,  1.60, 
 08/07/05, 09:00,  21.4,  80,  18.8,  18.7,  17.4,   0.0,  2.27, 
 08/07/05, 10:00,  22.4,  76,  19.6,  18.7,  17.5,   0.0,  2.92, 
 08/07/05, 11:00,  23.3,  80,  20.6,  18.6,  17.5,   0.0,  2.56, 
 08/07/05, 12:00,  24.2,  73,  21.5,  18.7,  17.6,   0.0,  2.94, 
 08/07/05, 13:00,  25.3,  60,  22.6,  18.9,  17.6,   0.0,  3.37, 
 08/07/05, 14:00,  26.0,  59,  23.1,  19.1,  17.5,   0.0,  3.12, 
 08/07/05, 15:00,  26.0,  57,  23.1,  19.4,  17.5,   0.0,  2.75, 
 08/07/05, 16:00,  25.4,  65,  23.0,  19.6,  17.5,   0.0,  2.19, 
 08/07/05, 17:00,  22.9,  77,  23.2,  19.8,  17.5,   0.0,  1.29, 
 08/07/05, 18:00,  22.4,  89,  23.2,  20.0,  17.5,   0.0,  0.78, 
 08/07/05, 19:00,  20.5,  99,  23.0,  20.1,  17.5,   0.0,  0.17, 
 08/07/05, 20:00,  20.1,  99,  22.7,  20.3,  17.6,   0.0,  0.00, 
 08/07/05, 21:00,  19.7,  99,  22.3,  20.3,  17.6,   0.0,  0.00, 
 08/07/05, 22:00,  19.3,  99,  22.1,  20.4,  17.7,   0.0,  0.00, 
 08/07/05, 23:00,  19.1,  99,  21.8,  20.4,  17.7,   0.0,  0.00, 
 08/07/06, 00:00,  18.5,  99,  21.6,  20.4,  17.7,   0.0,  0.00, 
 08/07/06, 01:00,  17.1,  99,  21.3,  20.3,  17.8,   0.0,  0.00, 
 08/07/06, 02:00,  16.8,  99,  21.0,  20.3,  17.8,   0.0,  0.00, 
 08/07/06, 03:00,  16.7,  99,  20.7,  20.2,  17.8,   0.0,  0.00, 
 08/07/06, 04:00,  16.7,  99,  20.5,  20.2,  17.8,   0.0,  0.00, 
 08/07/06, 05:00,  16.6,  99,  20.3,  20.1,  17.8,   0.0,  0.00, 
 08/07/06, 06:00,  17.0,  99,  20.1,  20.0,  17.8,   0.0,  0.10, 
 08/07/06, 07:00,  17.9,  99,  20.0,  19.9,  17.8,   0.0,  0.27, 
 08/07/06, 08:00,  19.9,  93,  20.0,  19.9,  17.9,   0.0,  1.23, 
 08/07/06, 09:00,  20.5,  97,  20.2,  19.8,  17.9,   0.0,  1.79, 
 08/07/06, 10:00,  22.9,  87,  20.6,  19.7,  17.9,   0.0,  2.22, 
 08/07/06, 11:00,  22.8,  84,  21.2,  19.7,  17.9,   0.0,  2.21, 
 08/07/06, 12:00,  23.3,  83,  21.8,  19.7,  17.9,   0.0,  2.22, 
 08/07/06, 13:00,  23.8,  70,  22.4,  19.8,  17.9,   0.0,  2.03, 
 08/07/06, 14:00,  25.1,  66,  22.7,  19.9,  18.0,   0.0,  2.88, 
 08/07/06, 15:00,  23.3,  81,  22.9,  20.1,  17.9,   0.0,  1.46, 
 08/07/06, 16:00,  21.6,  88,  23.1,  20.2,  18.0,   0.0,  0.79, 
 08/07/06, 17:00,  20.5,  97,  23.0,  20.4,  18.0,   0.0,  0.29, 
 08/07/06, 18:00,  20.5,  97,  22.8,  20.5,  18.0,   0.0,  0.32, 
 08/07/06, 19:00,  19.3,  99,  22.6,  20.6,  18.0,   0.0,  0.07, 
 08/07/06, 20:00,  19.3,  99,  22.3,  20.6,  18.1,   0.0,  0.00, 
 08/07/06, 21:00,  19.0,  99,  21.9,  20.7,  18.0,   0.0,  0.00, 
 08/07/06, 22:00,  19.3,  99,  21.8,  20.7,  18.0,   0.0,  0.00, 
 08/07/06, 23:00,  18.3,  99,  21.6,  20.7,  18.1,   0.0,  0.00, 
 08/07/07, 00:00,  18.4,  99,  21.3,  20.6,  18.1,   0.0,  0.00, 
 08/07/07, 01:00,  18.7,  98,  21.1,  20.6,  18.2,   0.0,  0.00, 
 08/07/07, 02:00,  18.2,  99,  20.9,  20.5,  18.1,   0.0,  0.00, 
 08/07/07, 03:00,  17.9,  99,  20.8,  20.5,  18.2,   0.0,  0.00, 
 08/07/07, 04:00,  17.9,  99,  20.6,  20.4,  18.2,   0.0,  0.00, 
 08/07/07, 05:00,  18.1,  99,  20.5,  20.3,  18.2,   0.0,  0.00, 
 08/07/07, 06:00,  18.0,  99,  20.4,  20.2,  18.3,   0.0,  0.03, 
 08/07/07, 07:00,  18.5,  97,  20.3,  20.2,  18.2,   0.0,  0.18, 
 08/07/07, 08:00,  19.3,  97,  20.3,  20.1,  18.2,   0.0,  0.49, 
 08/07/07, 09:00,  19.3,  96,  20.3,  20.0,  18.3,   0.0,  0.66, 
 08/07/07, 10:00,  21.0,  90,  20.5,  20.0,  18.4,   0.0,  1.36, 
 08/07/07, 11:00,  21.7,  89,  20.8,  20.0,  18.3,   0.0,  1.44, 
 08/07/07, 12:00,  24.3,  71,  21.3,  20.0,  18.3,   0.0,  2.71, 
 08/07/07, 13:00,  23.9,  72,  22.3,  20.0,  18.4,   0.0,  2.59, 
 08/07/07, 14:00,  23.9,  72,  22.8,  20.1,  18.3,   0.0,  1.99, 
 08/07/07, 15:00,  24.0,  78,  23.0,  20.2,  18.3,   0.0,  1.70, 
 08/07/07, 16:00,  22.7,  87,  23.1,  20.4,  18.3,   0.0,  0.92, 
 08/07/07, 17:00,  20.1,  99,  23.1,  20.5,  18.3,   0.0,  0.19, 
 08/07/07, 18:00,  19.7,  99,  22.9,  20.7,  18.4,   0.0,  0.28, 
 08/07/07, 19:00,  19.7,  99,  22.6,  20.8,  18.4,   0.0,  0.11, 
 08/07/07, 20:00,  19.6,  99,  22.3,  20.8,  18.4,   0.0,  0.00, 
 08/07/07, 21:00,  19.6,  99,  22.1,  20.8,  18.4,   0.0,  0.00, 
 08/07/07, 22:00,  19.2,  99,  21.8,  20.8,  18.5,   0.0,  0.00, 
 08/07/07, 23:00,  18.7,  99,  21.6,  20.8,  18.4,   8.0,  0.00, 
 08/07/08, 00:00,  18.4,  99,  21.3,  20.8,  18.4,   0.5,  0.00, 
 08/07/08, 01:00,  18.1,  99,  21.2,  20.8,  18.4,   0.0,  0.00, 
 08/07/08, 02:00,  17.9,  99,  20.9,  20.7,  18.4,   7.0,  0.00, 
 08/07/08, 03:00,  17.7,  99,  20.7,  20.7,  18.5,   0.0,  0.00, 
 08/07/08, 04:00,  16.1,  99,  20.6,  20.6,  18.5,   0.5,  0.00, 
 08/07/08, 05:00,  17.3,  99,  20.5,  20.5,  18.5,   1.0,  0.00, 
 08/07/08, 06:00,  17.4,  99,  20.3,  20.5,  18.6,   3.0,  0.00, 
 08/07/08, 07:00,  14.7,  99,  20.1,  20.4,  18.6,   5.0,  0.01, 
 08/07/08, 08:00,  15.4,  99,  19.7,  20.3,  18.7,   7.5,  0.08, 
 08/07/08, 09:00,  14.5,  99,  19.2,  20.2,  18.6,   6.5,  0.12, 
 08/07/08, 10:00,  15.6,  99,  18.9,  20.1,  18.7,   2.0,  0.32, 
 08/07/08, 11:00,  16.4,  99,  18.9,  20.0,  18.7,   2.5,  0.66, 
 08/07/08, 12:00,  17.2,  99,  19.0,  19.8,  18.8,   0.5,  1.00, 
 08/07/08, 13:00,  16.8,  99,  19.4,  19.7,  18.7,   0.0,  0.78, 
 08/07/08, 14:00,  18.5,  93,  19.7,  19.7,  18.8,   0.0,  2.46, 
 08/07/08, 15:00,  20.1,  96,  20.1,  19.6,  18.8,   0.0,  2.15, 
 08/07/08, 16:00,  20.0,  98,  20.6,  19.6,  18.8,   0.0,  2.38, 
 08/07/08, 17:00,  18.8,  99,  21.0,  19.7,  18.8,   0.0,  0.82, 
 08/07/08, 18:00,  18.3,  98,  21.1,  19.8,  18.7,   0.0,  0.71, 
 08/07/08, 19:00,  17.6,  99,  21.1,  19.8,  18.7,   0.0,  0.18, 
 08/07/08, 20:00,  16.9,  99,  20.9,  19.9,  18.7,   0.0,  0.00, 
 08/07/08, 21:00,  16.7,  99,  20.8,  20.0,  18.7,   0.0,  0.00, 
 08/07/08, 22:00,  16.7,  99,  20.6,  20.0,  18.7,   0.0,  0.00, 
 08/07/08, 23:00,  16.5,  99,  20.3,  20.0,  18.7,   0.0,  0.00, 
 08/07/09, 00:00,  16.5,  99,  20.2,  20.0,  18.7,   0.0,  0.00, 
 08/07/09, 01:00,  15.7,  99,  20.1,  19.9,  18.7,   0.0,  0.00, 
 08/07/09, 02:00,  15.2,  99,  19.9,  19.9,  18.7,   0.0,  0.00, 
 08/07/09, 03:00,  15.4,  99,  19.7,  19.8,  18.7,   0.0,  0.00, 
 08/07/09, 04:00,  14.8,  99,  19.5,  19.8,  18.6,   0.0,  0.00, 
 08/07/09, 05:00,  16.0,  99,  19.2,  19.7,  18.6,   0.0,  0.00, 
 08/07/09, 06:00,  16.2,  99,  19.1,  19.6,  18.6,   0.0,  0.04, 
 08/07/09, 07:00,  16.3,  99,  19.0,  19.6,  18.6,   0.0,  0.30, 
 08/07/09, 08:00,  16.5,  99,  19.0,  19.5,  18.5,   0.0,  0.32, 
 08/07/09, 09:00,  16.6,  99,  19.1,  19.4,  18.6,   0.0,  0.23, 
 08/07/09, 10:00,  16.9,  99,  19.1,  19.4,  18.6,   0.0,  0.31, 
 08/07/09, 11:00,  17.4,  99,  19.1,  19.2,  18.6,   0.0,  0.56, 
 08/07/09, 12:00,  18.3,  97,  19.4,  19.2,  18.6,   0.0,  1.31, 
 08/07/09, 13:00,  18.6,  97,  19.7,  19.2,  18.6,   0.0,  0.83, 
 08/07/09, 14:00,  17.5,  99,  20.0,  19.2,  18.6,   0.0,  0.87, 
 08/07/09, 15:00,  17.0,  99,  20.1,  19.2,  18.5,   3.0,  0.29, 
 08/07/09, 16:00,  17.3,  99,  20.0,  19.4,  18.5,   2.5,  0.32, 
 08/07/09, 17:00,  17.0,  99,  20.0,  19.4,  18.5,   0.5,  0.27, 
 08/07/09, 18:00,  16.5,  99,  19.8,  19.4,  18.5,   2.5,  0.06, 
 08/07/09, 19:00,  16.3,  99,  19.8,  19.4,  18.5,   0.5,  0.04, 
 08/07/09, 20:00,  16.5,  99,  19.6,  19.5,  18.6,   0.0,  0.00, 
 08/07/09, 21:00,  16.2,  99,  19.5,  19.4,  18.5,   0.0,  0.00, 
 08/07/09, 22:00,  16.2,  99,  19.4,  19.4,  18.5,   0.0,  0.00, 
 08/07/09, 23:00,  16.2,  99,  19.2,  19.4,  18.5,   0.0,  0.00, 
 08/07/10, 00:00,  16.1,  99,  19.1,  19.2,  18.5,   0.0,  0.00, 
 08/07/10, 01:00,  15.9,  99,  19.0,  19.2,  18.5,   0.0,  0.00, 
 08/07/10, 02:00,  15.3,  99,  18.9,  19.2,  18.5,   0.0,  0.00, 
 08/07/10, 03:00,  15.2,  99,  18.8,  19.1,  18.5,   0.0,  0.00, 
 08/07/10, 04:00,  14.8,  99,  18.7,  19.1,  18.5,   2.0,  0.00, 
 08/07/10, 05:00,  14.9,  99,  18.5,  19.0,  18.5,   1.0,  0.00, 
 08/07/10, 06:00,  14.9,  99,  18.4,  19.0,  18.5,   0.0,  0.00, 
 08/07/10, 07:00,  15.0,  99,  18.3,  18.9,  18.5,   0.0,  0.00, 
 08/07/10, 08:00,  15.7,  99,  18.3,  18.8,  18.5,   0.0,  0.00, 
 08/07/10, 09:00,  15.6,  99,  18.4,  18.8,  18.5,   0.0,  0.00, 
 08/07/10, 10:00,  15.8,  99,  18.5,  18.7,  18.4,   0.0,  0.00, 
 08/07/10, 11:00,  17.2,  99,  18.6,  18.7,  18.4,   0.0,  0.00, 
 08/07/10, 12:00,  18.2,  99,  19.1,  18.7,  18.3,   0.0,  0.00, 
 08/07/10, 13:00,  20.9,  88,  19.8,  18.7,  18.4,   0.0,  0.00, 
 08/07/10, 14:00,  21.5,  83,  20.4,  18.8,  18.4,   0.0,  0.00, 
 08/07/10, 15:00,  21.1,  86,  20.8,  18.9,  18.4,   0.0,  0.00, 
 08/07/10, 16:00,  21.0,  88,  20.9,  19.0,  18.4,   0.0,  0.00, 
 08/07/10, 17:00,  19.6,  93,  21.2,  19.1,  18.4,   0.0,  0.00, 
 08/07/10, 18:00,  18.5,  97,  21.0,  19.2,  18.4,   0.0,  0.00, 
 08/07/10, 19:00,  17.5,  99,  20.9,  19.5,  18.4,   0.0,  0.00, 
 08/07/10, 20:00,  17.0,  99,  20.8,  19.5,  18.3,   0.0,  0.00, 
 08/07/10, 21:00,  16.6,  99,  20.6,  19.6,  18.3,   0.0,  0.00, 
 08/07/10, 22:00,  16.4,  99,  20.3,  19.6,  18.3,   0.0,  0.00, 
 08/07/10, 23:00,  15.8,  99,  20.1,  19.6,  18.3,   0.0,  0.00, 
 08/07/11, 00:00,  15.9,  99,  19.7,  19.6,  18.3,   0.0,  0.00, 
 08/07/11, 01:00,  16.1,  98,  19.6,  19.6,  18.4,   0.0,  0.00, 
 08/07/11, 02:00,  15.7,  99,  19.5,  19.5,  18.4,   0.0,  0.00, 
 08/07/11, 03:00,  15.5,  99,  19.2,  19.5,  18.4,   0.0,  0.00, 
 08/07/11, 04:00,  15.7,  99,  19.1,  19.4,  18.4,   0.0,  0.00, 
 08/07/11, 05:00,  15.0,  99,  19.0,  19.4,  18.4,   0.0,  0.00, 
 08/07/11, 06:00,  15.4,  99,  18.8,  19.2,  18.4,   0.0,  0.00, 
 08/07/11, 07:00,  15.8,  99,  18.7,  19.1,  18.4,   0.0,  0.00, 
 08/07/11, 08:00,  17.0,  94,  18.7,  19.1,  18.4,   0.0,  0.00, 
 08/07/11, 09:00,  17.8,  95,  18.8,  19.0,  18.4,   0.0,  0.00, 
 08/07/11, 10:00,  19.3,  84,  19.1,  19.0,  18.4,   0.0,  0.00, 
 08/07/11, 11:00,  19.0,  89,  19.7,  18.9,  18.4,   0.0,  0.00, 
 08/07/11, 12:00,  20.8,  85,  20.1,  18.9,  18.4,   0.0,  0.00, 
 08/07/11, 13:00,  20.2,  90,  20.8,  19.0,  18.4,   0.0,  0.00, 
 08/07/11, 14:00,  22.0,  77,  21.2,  19.1,  18.4,   0.0,  0.00, 
 08/07/11, 15:00,  21.1,  81,  21.5,  19.2,  18.4,   0.0,  0.00, 
 08/07/11, 16:00,  21.1,  93,  21.7,  19.5,  18.5,   0.0,  0.00, 
 08/07/11, 17:00,  20.6,  85,  21.8,  19.6,  18.4,   0.0,  0.00, 
 08/07/11, 18:00,  17.5,  99,  21.8,  19.8,  18.4,   0.0,  0.00, 
 08/07/11, 19:00,  17.5,  99,  21.7,  19.9,  18.4,   0.0,  0.00, 
 08/07/11, 20:00,  17.6,  99,  21.5,  20.0,  18.4,   1.5,  0.00, 
 08/07/11, 21:00,  17.6,  99,  21.1,  20.0,  18.4,   0.0,  0.00, 
 08/07/11, 22:00,  17.0,  99,  20.9,  20.1,  18.4,   2.0,  0.00, 
 08/07/11, 23:00,  16.9,  99,  20.7,  20.1,  18.4,   0.0,  0.00, 
 08/07/12, 00:00,  17.0,  99,  20.4,  20.1,  18.5,   0.0,  0.00, 
 08/07/12, 01:00,  16.6,  99,  20.2,  20.0,  18.4,   0.0,  0.00, 
 08/07/12, 02:00,  15.7,  99,  20.0,  20.0,  18.4,   0.0,  0.00, 
 08/07/12, 03:00,  15.9,  99,  19.8,  19.9,  18.4,   0.0,  0.00, 
 08/07/12, 04:00,  16.0,  99,  19.7,  19.8,  18.5,   0.0,  0.00, 
 08/07/12, 05:00,  17.3,  94,  19.5,  19.7,  18.5,   0.0,  0.00, 
 08/07/12, 06:00,  17.0,  92,  19.2,  19.7,  18.5,   0.0,  0.00, 
 08/07/12, 07:00,  17.9,  91,  19.0,  19.6,  18.5,   0.0,  0.00, 
 08/07/12, 08:00,  19.1,  82,  19.0,  19.5,  18.6,   0.0,  0.00, 
 08/07/12, 09:00,  21.2,  83,  19.4,  19.5,  18.5,   0.0,  0.00, 
 08/07/12, 10:00,  20.7,  80,  19.9,  19.4,  18.6,   0.0,  0.00, 
 08/07/12, 11:00,  20.9,  86,  20.6,  19.4,  18.5,   0.0,  0.00, 
 08/07/12, 12:00,  22.6,  73,  21.1,  19.4,  18.5,   0.0,  0.00, 
 08/07/12, 13:00,  24.1,  67,  22.0,  19.5,  18.5,   0.0,  0.00, 
 08/07/12, 14:00,  24.7,  62,  22.6,  19.7,  18.6,   0.0,  0.00, 
 08/07/12, 15:00,  24.0,  62,  22.7,  19.9,  18.6,   0.0,  0.00, 
 08/07/12, 16:00,  23.9,  61,  22.8,  20.1,  18.6,   0.0,  0.00, 
 08/07/12, 17:00,  23.2,  62,  23.1,  20.3,  18.6,   0.0,  0.00, 
 08/07/12, 18:00,  22.1,  62,  23.2,  20.4,  18.6,   0.0,  0.00, 
 08/07/12, 19:00,  21.0,  68,  22.9,  20.5,  18.6,   0.0,  0.00, 
 08/07/12, 20:00,  17.1,  91,  22.5,  20.7,  18.5,   0.0,  0.00, 
 08/07/12, 21:00,  16.3,  90,  22.0,  20.7,  18.6,   0.0,  0.00, 
 08/07/12, 22:00,  15.8,  93,  21.6,  20.7,  18.6,   0.0,  0.00, 
 08/07/12, 23:00,  15.7,  88,  21.1,  20.7,  18.6,   0.0,  0.00, 
 08/07/13, 00:00,  18.6,  70,  20.9,  20.7,  18.6,   0.0,  0.00, 
 08/07/13, 01:00,  18.9,  66,  20.5,  20.6,  18.6,   0.0,  0.00, 
 08/07/13, 02:00,  16.6,  79,  20.3,  20.5,  18.6,   0.0,  0.00, 
 08/07/13, 03:00,  17.1,  77,  20.0,  20.4,  18.7,   0.0,  0.00, 
 08/07/13, 04:00,  16.1,  81,  19.7,  20.3,  18.7,   0.0,  0.00, 
 08/07/13, 05:00,  18.1,  66,  19.5,  20.1,  18.7,   0.0,  0.00, 
 08/07/13, 06:00,  17.6,  70,  19.2,  20.1,  18.7,   0.0,  0.00, 
 08/07/13, 07:00,  19.0,  75,  19.1,  20.0,  18.7,   0.0,  0.00, 
 08/07/13, 08:00,  20.9,  70,  19.1,  19.9,  18.7,   0.0,  0.00, 
 08/07/13, 09:00,  21.6,  74,  19.6,  19.8,  18.7,   0.0,  0.00, 
 08/07/13, 10:00,  24.0,  65,  20.3,  19.7,  18.7,   0.0,  0.00, 
 08/07/13, 11:00,  24.2,  67,  21.2,  19.7,  18.7,   0.0,  0.00, 
 08/07/13, 12:00,  24.3,  69,  22.3,  19.7,  18.7,   0.0,  0.00, 
 08/07/13, 13:00,  25.0,  70,  23.1,  19.9,  18.7,   0.0,  0.00, 
 08/07/13, 14:00,  22.6,  78,  23.7,  20.1,  18.7,   0.0,  0.00, 
 08/07/13, 15:00,  22.9,  83,  23.7,  20.4,  18.7,   0.0,  0.00, 
 08/07/13, 16:00,  22.9,  80,  23.7,  20.6,  18.7,   0.0,  0.00, 
 08/07/13, 17:00,  22.9,  81,  23.8,  20.8,  18.7,   0.0,  0.00, 
 08/07/13, 18:00,  22.1,  80,  23.8,  20.9,  18.7,   0.0,  0.00, 
 08/07/13, 19:00,  20.0,  91,  23.5,  21.1,  18.7,   0.0,  0.00, 
 08/07/13, 20:00,  19.0,  93,  23.2,  21.2,  18.8,   0.0,  0.00, 
 08/07/13, 21:00,  19.3,  90,  22.8,  21.2,  18.8,   0.0,  0.00, 
 08/07/13, 22:00,  19.2,  91,  22.4,  21.3,  18.8,   0.0,  0.00, 
 08/07/13, 23:00,  19.2,  94,  22.0,  21.3,  18.8,   0.0,  0.00, 
 08/07/14, 00:00,  19.1,  96,  21.7,  21.2,  18.8,   0.0,  0.00, 
 08/07/14, 01:00,  18.6,  99,  21.6,  21.2,  18.9,   0.0,  0.00, 
 08/07/14, 02:00,  18.5,  99,  21.4,  21.1,  18.9,   0.0,  0.00, 
 08/07/14, 03:00,  18.8,  99,  21.1,  20.9,  18.9,   0.0,  0.00, 
 08/07/14, 04:00,  18.3,  99,  21.1,  20.9,  18.9,   0.5,  0.00, 
 08/07/14, 05:00,  17.8,  99,  20.9,  20.9,  19.0,   0.5,  0.00, 
 08/07/14, 06:00,  18.0,  99,  20.8,  20.8,  19.0,   0.0,  0.00, 
 08/07/14, 07:00,  18.1,  99,  20.7,  20.7,  19.0,   0.0,  0.00, 
 08/07/14, 08:00,  18.3,  99,  20.5,  20.6,  19.0,   1.0,  0.00, 
 08/07/14, 09:00,  19.3,  99,  20.5,  20.5,  19.0,   0.0,  0.00, 
 08/07/14, 10:00,  21.5,  86,  20.9,  20.5,  19.0,   0.0,  0.00, 
 08/07/14, 11:00,  22.2,  80,  21.6,  20.5,  19.0,   0.0,  0.00, 
 08/07/14, 12:00,  23.4,  79,  22.6,  20.5,  19.0,   0.0,  0.00, 
 08/07/14, 13:00,  23.9,  77,  23.5,  20.6,  19.0,   0.0,  0.00, 
 08/07/14, 14:00,  21.0,  90,  23.9,  20.8,  19.0,   0.5,  0.00, 
 08/07/14, 15:00,  22.3,  83,  23.9,  21.0,  19.0,   0.0,  0.00, 
 08/07/14, 16:00,  22.3,  83,  23.9,  21.1,  19.1,   0.0,  0.00, 
 08/07/14, 17:00,  21.3,  88,  23.8,  21.3,  18.9,   0.0,  0.00, 
 08/07/14, 18:00,  20.6,  90,  23.6,  21.4,  19.1,   0.0,  0.00, 
 08/07/14, 19:00,  20.1,  89,  23.3,  21.5,  19.1,   0.0,  0.00, 
 08/07/14, 20:00,  19.0,  90,  22.9,  21.6,  18.8,   0.0,  0.00, 
 08/07/14, 21:00,  17.3,  99,  22.7,  21.6,  19.1,   0.0,  0.00, 
 08/07/14, 22:00,  16.7,  99,  22.2,  21.6,  19.1,   0.0,  0.00, 
 08/07/14, 23:00,  18.4,  90,  21.8,  21.5,  19.2,   0.0,  0.00, 
 08/07/15, 00:00,  18.1,  91,  21.6,  21.4,  19.2,   0.0,  0.00, 
 08/07/15, 01:00,  18.2,  90,  21.3,  21.4,  19.3,   0.0,  0.00, 
 08/07/15, 02:00,  17.9,  88,  21.0,  21.3,  19.1,   0.0,  0.00, 
 08/07/15, 03:00,  16.1,  99,  20.8,  21.2,  19.0,   0.0,  0.00, 
 08/07/15, 04:00,  16.1,  99,  20.5,  21.1,  19.0,   0.0,  0.00, 
 08/07/15, 05:00,  17.6,  91,  20.2,  20.8,  19.1,   0.0,  0.00, 
 08/07/15, 06:00,  16.1,  99,  20.1,  20.8,  19.1,   0.0,  0.00, 
 08/07/15, 07:00,  19.8,  80,  19.9,  20.7,  19.1,   0.0,  0.00, 
 08/07/15, 08:00,  19.2,  92,  19.9,  20.6,  19.1,   0.0,  0.00, 
 08/07/15, 09:00,  21.0,  82,  20.1,  20.5,  19.1,   0.0,  0.00, 
 08/07/15, 10:00,  22.1,  82,  20.7,  20.4,  19.1,   0.0,  0.00, 
 08/07/15, 11:00,  22.8,  75,  21.5,  20.4,  19.1,   0.0,  0.00, 
 08/07/15, 12:00,  25.0,  68,  22.6,  20.4,  19.3,   0.0,  0.00, 
 08/07/15, 13:00,  25.6,  58,  24.0,  20.5,  19.4,   0.0,  0.00, 
 08/07/15, 14:00,  25.0,  61,  24.5,  20.7,  19.4,   0.0,  0.00, 
 08/07/15, 15:00,  25.7,  52,  24.5,  21.0,  19.4,   0.0,  0.00, 
 08/07/15, 16:00,  25.3,  62,  24.4,  21.2,  19.1,   0.0,  0.00, 
 08/07/15, 17:00,  23.2,  69,  24.4,  21.4,  19.1,   0.0,  0.00, 
 08/07/15, 18:00,  21.8,  76,  24.3,  21.6,  19.4,   0.0,  0.00, 
 08/07/15, 19:00,  20.5,  88,  24.0,  21.7,  19.4,   0.0,  0.00, 
 08/07/15, 20:00,  19.5,  92,  23.7,  21.8,  19.2,   0.0,  0.00, 
 08/07/15, 21:00,  18.8,  95,  23.3,  21.9,  19.1,   0.0,  0.00, 
 08/07/15, 22:00,  18.5,  98,  23.0,  21.9,  19.1,   0.0,  0.00, 
 08/07/15, 23:00,  18.5,  99,  22.7,  21.8,  19.1,   0.0,  0.00, 
 08/07/16, 00:00,  18.7,  99,  22.4,  21.8,  19.5,   0.0,  0.00, 
 08/07/16, 01:00,  18.5,  99,  22.1,  21.8,  19.5,   0.0,  0.00, 